Location: Newark
(56.0692°N, 115.8617°E)
Time: 12:26:38
(UTC+00:00)

Vanguard 2 Rocket - Pass Details

Date: 30 May 2020
Orbit: 556 x 3325 km, 32.9° (Epoch: 14 July)

Event Time Altitude Azimuth Distance (km) Brightness Sun altitude
Rises 12:28:46 0° 258° (WSW) 5,601 11.5 1.3°
Reaches altitude 10° 12:33:42 10° 242° (WSW) 5,058 11.0 0.8°
Maximum altitude 12:42:59 19° 205° (SSW) 4,989 10.5 -0.2°
Drops below altitude 10° 12:54:10 10° 169° (S) 6,198 10.6 -1.4°
Sets 13:01:27 0° 155° (SSE) 7,305 10.9 -2.1°
